{"data":{"norad_id":59844,"epoch":"2026-09-21T08:35:09.938688Z","epoch_age_seconds":100354,"freshness":"FRESH","line1":"1 59844U 24097K   26264.35775392  .00000438  00000+0  25448-4 0  9994","line2":"2 59844  43.0029 249.1672 0001301 267.1443  92.9260 15.27579110131846","mean_motion":15.2757911,"eccentricity":0.0001301,"inclination_deg":43.0029,"raan_deg":249.1672,"arg_perigee_deg":267.1443,"mean_anomaly_deg":92.926,"bstar":2.5448e-5,"rev_number":13184,"period_min":94.26680363546,"perigee_km":482.15912036331,"apogee_km":483.94440167893,"semimajor_km":6861.1887610211,"source":"CELESTRAK","updated_at":"2026-09-22T09:00:49.096932Z"}}